{"data":{"norad_id":57233,"epoch":"2026-09-19T14:45:38.880576Z","epoch_age_seconds":200648,"freshness":"STALE","line1":"1 57233U 23094R   26262.61503334 -.00000490  00000+0 -82968-5 0  9993","line2":"2 57233  43.0031  15.5461 0001287 271.6754  88.3950 15.27571845176771","mean_motion":15.27571845,"eccentricity":0.0001287,"inclination_deg":43.0031,"raan_deg":15.5461,"arg_perigee_deg":271.6754,"mean_anomaly_deg":88.395,"bstar":-8.2968e-6,"rev_number":17677,"period_min":94.267251960251,"perigee_km":482.19047735873,"apogee_km":483.95655294533,"semimajor_km":6861.210515152,"source":"CELESTRAK","updated_at":"2026-09-21T09:00:33.586946Z"}}